E8376 Weather Reports


time (UTC)temp
F
wind
direction
speed
knots
gust
knots
rain 1hr
in
rain 24hr
in
rain mn
in
humidity
%
barometer
mb
20260504202036 80 345 2.6 7.0 0.00 0.00 0.00 51 1014.3
20260504201535 80 180 1.7 7.0 0.00 0.00 0.00 51 1014.3
20260504201253 80 13 1.7 7.0 0.00 0.00 0.00 51 1014.3
20260504200536 79 33 1.7 5.2 0.00 0.00 0.00 51 1014.3
20260504200256 78 124 2.6 5.2 0.00 0.00 0.00 54 1014.5
20260504195532 78 9 1.7 4.3 0.00 0.00 0.00 54 1014.6
20260504195031 78 63 1.7 5.2 0.00 0.00 0.00 55 1015.1
20260504194525 79 166 2.6 7.8 0.00 0.00 0.00 52 1015.1
20260504194026 79 35 2.6 7.8 0.00 0.00 0.00 49 1014.9
20260504193753 79 239 2.6 7.0 0.00 0.00 0.00 50 1014.9
20260504193027 79 35 2.6 5.2 0.00 0.00 0.00 50 1015.0
20260504192526 78 299 1.7 5.2 0.00 0.00 0.00 51 1015.6
20260504192025 79 1 1.7 7.0 0.00 0.00 0.00 52 1015.6
20260504191526 79 274 2.6 7.0 0.00 0.00 0.00 50 1015.8
20260504191026 80 143 1.7 7.0 0.00 0.00 0.00 49 1015.8
20260504190742 81 338 1.7 6.1 0.00 0.00 0.00 49 1015.6
20260504190026 81 22 2.6 6.1 0.00 0.00 0.00 48 1015.3
20260504185746 80 4 1.7 8.7 0.00 0.00 0.00 51 1015.2
20260504185026 80 323 1.7 8.7 0.00 0.00 0.00 51 1015.4
20260504184526 79 268 1.7 8.7 0.00 0.00 0.00 52 1015.4
20260504184027 79 3 2.6 8.7 0.00 0.00 0.00 50 1015.8
20260504183523 79 128 3.5 11.3 0.00 0.00 0.00 51 1015.5
20260504183023 78 302 2.6 11.3 0.00 0.00 0.00 51 1016.0
20260504182523 79 213 1.7 9.6 0.00 0.00 0.00 51 1015.7
20260504182023 79 20 2.6 9.6 0.00 0.00 0.00 53 1015.7
20260504181523 79 306 2.6 9.6 0.00 0.00 0.00 49 1015.8
20260504181024 79 49 2.6 7.0 0.00 0.00 0.00 53 1016.2
20260504180523 80 82 2.6 7.0 0.00 0.00 0.00 53 1015.9
20260504180024 79 15 1.7 5.2 0.00 0.00 0.00 53 1015.8
20260504175747 79 307 1.7 6.1 0.00 0.00 0.00 52 1016.1
20260504175021 79 1 2.6 7.8 0.00 0.00 0.00 53 1016.1
20260504174521 79 304 2.6 7.8 0.00 0.00 0.00 52 1016.3
20260504174021 78 328 1.7 6.1 0.00 0.00 0.00 54 1016.0
20260504173521 77 265 1.7 6.1 0.00 0.00 0.00 53 1016.3
20260504173021 76 320 1.7 5.2 0.00 0.00 0.00 55 1016.5
20260504172521 76 264 1.7 7.0 0.00 0.00 0.00 57 1016.9
20260504172021 76 315 1.7 7.0 0.00 0.00 0.00 55 1017.0
20260504171522 77 2 1.7 7.8 0.00 0.00 0.00 55 1017.0
20260504171018 78 68 3.5 9.6 0.00 0.00 0.00 55 1016.9
20260504170529 78 333 3.5 9.6 0.00 0.00 0.00 53 1016.8
20260504160241 76 355 2.6 8.7 0.00 0.00 0.00 55 1017.2
20260504150505 74 293 2.6 7.8 0.00 0.00 0.00 59 1017.4
20260504150234 74 96 1.7 7.8 0.00 0.00 0.00 60 1017.2
20260504141000 67 347 1.7 5.2 0.00 0.00 0.00 73 1017.3
20260504140500 65 305 0.9 4.3 0.00 0.00 0.00 79 1017.3
20260504130454 55 0 0.0 4.3 0.00 0.00 0.00 93 1017.3
20260504110440 50 0 0.0 0.0 0.00 0.00 0.00 97 1018.4
20260504100414 51 0 0.0 0.9 0.00 0.00 0.00 97 1018.4
20260504081858 53 0 0.0 0.0 0.00 0.00 0.00 96 1018.4
20260504081400 53 0 0.0 0.0 0.00 0.00 0.00 96 1018.4
20260504081114 52 0 0.0 0.0 0.00 0.00 0.00 96 1018.4
20260504080400 53 0 0.0 0.9 0.00 0.00 0.00 96 1018.4
20260504080122 53 0 0.0 0.9 0.00 0.00 0.00 96 1018.3
20260504070345 54 0 0.0 1.7 0.00 0.00 0.00 96 1018.8
20260504050334 56 0 0.0 0.0 0.00 0.00 0.00 95 1019.3
20260504045830 56 0 0.0 0.0 0.00 0.00 0.00 95 1019.3
20260504045321 56 0 0.0 0.0 0.00 0.00 0.00 95 1019.3
20260504045038 56 0 0.0 0.0 0.00 0.00 0.00 95 1019.4
20260504044316 56 0 0.0 0.0 0.00 0.00 0.00 95 1019.4
20260504044037 56 0 0.0 1.7 0.00 0.00 0.00 95 1019.4
20260504043537 56 0 0.0 1.7 0.00 0.00 0.00 95 1019.4
20260504042817 56 18 0.0 0.9 0.00 0.00 0.00 95 1019.3
20260504042541 56 0 0.0 0.9 0.00 0.00 0.00 95 1019.3
20260504041816 56 0 0.0 0.0 0.00 0.00 0.00 95 1019.4
20260504041317 56 0 0.0 0.0 0.00 0.00 0.00 94 1019.3
20260504040817 56 0 0.0 0.0 0.00 0.00 0.00 94 1019.3
20260504040535 56 0 0.0 0.0 0.00 0.00 0.00 94 1019.3
20260504035817 56 0 0.0 0.0 0.00 0.00 0.00 94 1019.3
20260504035317 57 0 0.0 1.7 0.00 0.00 0.00 94 1019.3
20260504034817 57 0 0.0 1.7 0.00 0.00 0.00 94 1019.3
20260504034311 57 0 0.0 0.9 0.00 0.00 0.00 94 1019.3
20260504033811 57 0 0.0 0.9 0.00 0.00 0.00 93 1019.4
20260504033534 57 0 0.0 1.7 0.00 0.00 0.00 93 1019.4
20260504032811 57 0 0.0 1.7 0.00 0.00 0.00 93 1019.4
20260504032311 58 0 0.0 0.9 0.00 0.00 0.00 93 1019.4
20260504031811 58 0 0.0 1.7 0.00 0.00 0.00 92 1019.5
20260504031312 58 0 0.0 1.7 0.00 0.00 0.00 92 1019.4
20260504030811 58 0 0.0 1.7 0.00 0.00 0.00 92 1019.5
20260504030312 58 0 0.0 1.7 0.00 0.00 0.00 92 1019.5
20260504025812 58 26 0.0 0.9 0.00 0.00 0.00 92 1019.6
20260504025308 58 0 0.0 0.9 0.00 0.00 0.00 91 1019.6
20260504024808 58 0 0.0 0.9 0.00 0.00 0.00 91 1019.7
20260504024308 59 0 0.0 0.9 0.00 0.00 0.00 91 1019.7
20260504023808 59 0 0.0 0.0 0.00 0.00 0.00 90 1019.6
20260504023309 59 0 0.0 0.0 0.00 0.00 0.00 90 1019.7
20260504022808 59 0 0.0 0.0 0.00 0.00 0.00 90 1019.7
20260504022308 60 0 0.0 0.9 0.00 0.00 0.00 89 1019.6
20260504021809 60 0 0.0 0.9 0.00 0.00 0.00 89 1019.6
20260504021529 60 0 0.0 0.9 0.00 0.00 0.00 88 1019.6
20260504020808 60 0 0.0 0.9 0.00 0.00 0.00 88 1019.5
20260504020309 60 0 0.0 0.9 0.00 0.00 0.00 88 1019.4
20260504020252 61 0 0.0 0.0 0.00 0.00 0.00 87 1019.3
20260504015309 61 0 0.0 0.0 0.00 0.00 0.00 86 1019.2
20260504014809 61 0 0.0 0.0 0.00 0.00 0.00 86 1019.1
20260504014308 62 0 0.0 0.0 0.00 0.00 0.00 85 1019.1
20260504013809 62 0 0.0 0.0 0.00 0.00 0.00 85 1019.0
20260504013308 62 0 0.0 0.0 0.00 0.00 0.00 84 1019.0
20260504012808 63 0 0.0 0.0 0.00 0.00 0.00 84 1018.9
20260504012308 63 0 0.0 0.0 0.00 0.00 0.00 83 1018.9
20260504011308 64 0 0.0 0.0 0.00 0.00 0.00 82 1018.8
20260504010808 64 0 0.0 0.0 0.00 0.00 0.00 81 1018.8
20260504010538 65 0 0.0 0.0 0.00 0.00 0.00 80 1018.6
20260504005808 65 0 0.0 0.0 0.00 0.00 0.00 79 1018.6
20260504005307 66 0 0.0 0.0 0.00 0.00 0.00 79 1018.3
20260504004808 67 0 0.0 0.0 0.00 0.00 0.00 76 1018.3
20260504004308 67 0 0.0 0.0 0.00 0.00 0.00 75 1018.3
20260504003808 68 0 0.0 0.0 0.00 0.00 0.00 72 1018.5
20260504003309 68 0 0.0 0.0 0.00 0.00 0.00 75 1018.4
20260504002807 69 0 0.0 0.9 0.00 0.00 0.00 76 1018.2
20260504002307 69 0 0.0 0.9 0.00 0.00 0.00 72 1018.2
20260504001808 70 0 0.0 0.9 0.00 0.00 0.00 70 1018.3
20260504001304 71 0 0.0 0.9 0.00 0.00 0.00 69 1018.3
20260504000804 71 274 0.0 0.9 0.00 0.00 0.00 66 1018.2
20260504000304 72 0 0.0 0.0 0.00 0.00 0.00 64 1018.3
20260504000036 73 0 0.0 0.9 0.00 0.00 0.00 63 1018.1
20260503235304 74 0 0.0 1.7 0.00 0.00 0.00 63 1018.2
20260503235029 74 0 0.0 1.7 0.00 0.00 0.00 64 1018.3
20260503234304 76 0 0.0 2.6 0.00 0.00 0.00 60 1018.1
20260503233805 77 327 0.0 2.6 0.00 0.00 0.00 57 1018.2
20260503233305 78 0 0.0 1.7 0.00 0.00 0.00 54 1018.0
20260503232802 78 321 0.0 1.7 0.00 0.00 0.00 54 1017.7
20260503232305 78 0 0.0 0.9 0.00 0.00 0.00 55 1017.7
20260503231803 79 229 0.0 2.6 0.00 0.00 0.00 52 1017.5
20260503231303 78 0 0.9 3.5 0.00 0.00 0.00 48 1017.7
20260503231015 78 333 0.9 3.5 0.00 0.00 0.00 48 1017.9
20260503230259 78 322 0.9 2.6 0.00 0.00 0.00 49 1017.8
20260503225801 78 329 0.9 2.6 0.00 0.00 0.00 49 1018.0
20260503225259 78 329 0.9 3.5 0.00 0.00 0.00 49 1018.0
20260503224759 78 338 1.7 3.5 0.00 0.00 0.00 49 1017.9
20260503224259 78 311 1.7 4.3 0.00 0.00 0.00 49 1017.9
20260503223759 77 267 1.7 4.3 0.00 0.00 0.00 49 1018.1
20260503223300 77 304 1.7 4.3 0.00 0.00 0.00 49 1018.2
20260503222800 76 4 1.7 3.5 0.00 0.00 0.00 52 1018.4
20260503222259 77 275 1.7 3.5 0.00 0.00 0.00 50 1018.5
20260503222252 78 318 1.7 4.3 0.00 0.00 0.00 49 1018.5
20260503221259 78 213 1.7 5.2 0.00 0.00 0.00 48 1018.2
20260503220800 78 0 1.7 5.2 0.00 0.00 0.00 50 1018.2
20260503220258 78 286 1.7 6.1 0.00 0.00 0.00 47 1018.2
20260503215759 78 2 1.7 6.1 0.00 0.00 0.00 49 1018.3
20260503215258 78 292 1.7 5.2 0.00 0.00 0.00 50 1018.5
20260503214756 78 347 1.7 6.1 0.00 0.00 0.00 49 1018.3
20260503214254 78 0 1.7 6.1 0.00 0.00 0.00 49 1018.4
20260503213758 77 311 1.7 5.2 0.00 0.00 0.00 48 1018.7
20260503213255 78 311 2.6 6.1 0.00 0.00 0.00 49 1019.0
20260503213025 78 339 2.6 6.1 0.00 0.00 0.00 48 1018.8
20260503212249 78 358 1.7 5.2 0.00 0.00 0.00 48 1019.0
20260503211748 78 21 1.7 7.8 0.00 0.00 0.00 49 1018.8
20260503211249 79 13 2.6 7.8 0.00 0.00 0.00 48 1018.8
20260503210749 79 341 2.6 7.8 0.00 0.00 0.00 48 1018.8
20260503210249 79 280 2.6 7.8 0.00 0.00 0.00 48 1018.9
20260503205749 79 218 2.6 6.1 0.00 0.00 0.00 48 1019.0
20260503205247 78 281 2.6 6.1 0.00 0.00 0.00 48 1018.9
20260503204746 77 0 3.5 7.8 0.00 0.00 0.00 48 1019.6
20260503204244 79 336 2.6 8.7 0.00 0.00 0.00 50 1019.4
20260503203744 78 344 2.6 8.7 0.00 0.00 0.00 47 1019.3
20260503203245 78 322 2.6 7.8 0.00 0.00 0.00 48 1019.5
20260503203002 78 288 2.6 7.8 0.00 0.00 0.00 48 1019.7
20260503202244 78 63 2.6 6.1 0.00 0.00 0.00 49 1019.6